Theta_e
302 302 302 302 301 300 297 288 275 286 298 281 281 271 281 287 286 289 286 286 284 284 283 281 283 281 286 292 291 285 288 283 279 282 288 289 287 285 284 278 277 279 277 279
302 302 302 302 302 300 292 285 281 287 292 269 275 278 281 284 283 283 282 283 287 287 283 277 282 282 290 292 290 287 288 282 276 279 283 288 284 286 285 282 281 277 274 276
301 300 301 301 302 301 293 285 277 279 288 284 280 280 279 280 285 284 286 284 285 283 282 285 278 283 288 290 289 291 289 283 279 275 278 283 280 284 285 279 273 276 277 279
300 300 300 300 301 301 294 285 276 280 271 279 279 280 280 279 279 284 285 281 281 280 272 279 280 283 284 287 288 289 288 279 281 283 284 283 282 282 284 282 281 276 277 280
300 300 300 301 300 300 291 282 281 280 278 282 280 279 277 278 279 279 279 279 281 281 275 279 275 281 281 280 285 284 287 274 281 279 282 282 280 282 282 283 283 281 282 281
300 300 300 300 300 299 288 287 288 284 280 279 276 277 280 280 282 282 283 281 277 275 279 283 283 284 284 283 281 280 280 279 274 271 279 279 272 278 281 281 283 282 278 282
300 300 300 300 300 299 292 290 288 280 276 279 279 280 281 280 281 278 282 282 280 283 289 287 286 285 284 284 283 284 279 279 279 273 276 262 277 281 282 281 282 282 281 281
300 300 300 300 300 300 295 293 288 283 275 279 280 281 280 281 283 281 281 283 285 287 284 275 276 276 279 280 283 283 284 280 268 266 272 275 277 278 278 277 276 282 281 282
300 299 299 300 299 300 296 293 293 287 279 276 282 278 281 277 275 277 281 286 288 287 280 274 269 270 276 275 277 284 283 283 273 266 266 264 276 279 281 280 273 281 282 280
299 300 299 299 299 300 293 293 294 289 281 281 283 279 278 281 278 273 279 282 283 286 277 272 272 272 279 273 274 276 277 277 273 270 269 271 277 280 282 270 273 280 282 281
299 299 299 299 299 299 294 293 295 287 284 283 288 287 282 282 281 276 277 277 281 279 276 275 273 272 275 276 277 276 272 270 269 273 269 264 281 281 276 278 280 282 282 282
299 299 299 299 298 298 296 289 294 295 288 281 288 289 290 288 286 282 285 283 283 284 278 276 277 276 276 275 271 279 271 275 270 272 269 278 282 279 282 281 280 280 280 282
298 299 299 299 298 297 292 290 292 290 285 283 281 284 289 292 291 293 283 285 287 286 287 282 279 276 278 273 274 277 279 282 276 278 281 280 282 282 283 283 282 284 284 284
298 298 298 298 298 298 293 290 292 290 287 279 280 289 287 291 291 291 291 287 288 287 283 279 278 277 280 275 276 275 276 278 277 277 279 281 281 281 282 284 285 285 285 283
297 298 299 298 298 298 293 292 292 293 285 280 279 287 291 292 289 289 289 288 284 284 279 277 276 279 277 277 276 274 277 277 274 272 280 280 280 283 285 284 284 285 285 284
298 298 299 299 298 296 291 285 291 293 293 285 276 283 288 290 289 289 287 285 282 281 280 278 279 281 278 274 273 278 280 281 281 280 283 283 284 285 285 286 287 287 287 287
297 298 299 299 298 288 283 280 287 295 293 286 279 276 285 290 286 283 282 283 281 282 280 278 278 278 280 275 273 279 281 281 282 283 285 282 283 283 286 287 288 288 286 287
297 297 299 297 296 292 285 287 294 295 290 288 279 276 278 287 282 278 281 278 280 280 279 279 277 278 277 273 278 279 280 281 281 283 285 284 284 287 286 287 286 284 284 284
296 295 295 289 285 279 283 294 295 292 286 279 279 275 269 282 279 278 277 278 273 279 276 277 278 276 273 278 278 279 281 280 282 284 284 282 283 283 283 283 283 282 282 283
293 287 282 273 281 293 291 285 276 281 280 285 279 277 273 280 278 274 274 274 272 270 276 278 276 276 280 280 280 281 282 283 283 281 281 282 281 282 282 281 282 283 282 283
282 276 276 283 291 283 278 269 270 273 275 278 279 278 276 282 277 273 274 269 272 268 273 275 275 273 278 278 275 282 283 283 284 285 285 284 283 282 282 281 282 282 283 283
286 288 291 289 279 275 274 268 275 275 275 278 277 278 281 279 278 273 273 273 274 270 276 272 267 275 280 281 280 282 282 282 283 285 284 284 284 284 282 282 282 283 283 283
288 288 284 280 273 265 267 264 272 268 276 277 277 274 277 278 277 272 274 271 269 276 268 268 272 276 281 280 281 281 282 282 282 284 285 285 285 284 283 282 282 282 283 283
281 277 267 269 264 271 273 276 276 278 278 277 277 274 273 274 271 270 269 274 276 268 263 270 272 278 280 281 281 281 280 279 280 282 283 283 283 283 282 282 281 281 281 281
278 277 265 270 276 276 276 276 277 279 279 278 274 274 274 270 270 275 275 272 267 268 268 270 278 281 281 280 281 280 280 276 278 281 282 282 282 282 283 281 282 280 278 279
281 279 274 275 272 268 267 272 275 279 275 274 275 273 270 271 273 275 271 272 265 269 274 277 280 281 282 282 282 282 281 280 280 280 282 283 282 283 284 283 282 281 275 274
280 274 275 274 274 272 273 275 277 280 277 268 272 268 270 278 273 272 273 268 272 279 280 282 281 282 283 283 282 279 280 280 280 281 282 282 283 283 283 283 283 283 283 280
Wind_Speed
17 16 14 13 11 5 5 1 1 4 4 2 2 4 3 5 2 4 4 4 6 4 5 4 3 3 5 7 6 3 5 1 2 3 4 5 2 3 2 2 1 3 2 5
13 13 14 15 13 6 3 2 3 3 2 2 4 5 4 3 3 4 3 4 5 1 2 4 2 3 5 7 2 4 4 2 1 4 2 2 1 3 3 3 0 4 4 4
12 12 13 13 12 10 4 2 3 3 3 3 4 3 8 7 6 5 4 4 4 4 4 6 4 3 3 0 4 5 4 3 2 2 3 4 2 2 6 5 3 4 5 2
13 12 12 12 11 11 4 4 6 5 4 6 8 3 3 5 4 2 1 2 3 2 2 4 3 3 6 5 8 2 2 3 1 4 7 5 3 6 4 10 7 7 3 6
14 14 14 13 12 7 2 2 2 2 3 2 6 7 4 6 3 4 4 4 4 4 5 6 6 5 2 4 4 4 2 4 1 4 7 10 12 13 14 12 12 8 11 16
13 13 14 12 12 6 3 3 3 1 2 3 3 4 5 7 7 5 7 4 2 2 7 7 9 7 6 7 3 1 2 1 1 5 0 2 4 12 14 11 10 9 11 11
14 15 13 13 12 10 4 3 3 4 6 6 9 6 6 11 9 6 4 4 4 6 2 4 4 5 7 7 9 8 5 5 2 3 1 3 6 2 4 9 5 5 4 4
15 14 14 14 13 15 6 4 4 4 3 5 8 8 4 5 5 7 9 9 9 2 1 2 4 3 3 9 14 14 12 7 2 2 4 5 5 4 3 4 5 6 5 3
13 14 16 16 13 13 5 4 4 3 2 7 9 6 7 8 4 4 7 8 4 4 3 3 5 4 4 3 2 4 11 6 4 1 2 4 1 1 3 1 5 5 5 6
11 14 15 15 14 15 4 2 7 3 2 5 5 5 6 6 3 3 4 4 3 4 4 3 4 4 3 4 3 4 4 3 7 4 4 8 5 5 3 5 7 4 5 8
12 12 15 16 13 13 3 0 7 4 2 3 4 4 5 2 3 3 4 4 2 2 8 5 4 3 5 3 0 4 5 5 4 2 3 7 5 4 5 8 3 5 5 8
12 13 15 12 11 11 2 1 3 2 2 4 2 5 5 6 7 5 3 3 3 2 2 1 2 3 2 3 3 2 2 7 6 8 8 6 5 4 5 2 4 5 4 8
14 13 13 14 9 8 5 1 2 2 1 4 1 7 6 6 9 5 3 2 3 3 1 1 0 2 2 3 4 3 4 4 2 2 1 4 3 5 3 3 4 7 9 11
16 14 12 10 11 7 5 1 0 1 1 2 6 1 7 4 6 11 9 3 2 1 1 1 1 1 2 2 2 2 3 1 2 3 4 5 3 1 5 13 13 14 13 10
19 17 14 11 8 8 3 1 1 1 1 3 5 8 3 4 5 8 7 5 3 1 2 2 2 1 1 0 1 3 3 4 4 5 1 2 5 6 11 11 14 14 15 16
20 19 15 10 8 4 1 2 2 1 1 3 4 4 4 5 3 5 4 4 2 2 3 2 3 3 2 2 3 2 2 2 2 2 4 4 8 10 5 12 15 17 16 16
20 21 17 5 5 2 2 5 3 1 1 2 4 5 3 3 2 2 2 2 2 2 1 2 2 2 3 2 4 4 6 1 2 4 5 7 4 10 12 12 13 16 15 13
21 20 11 3 3 3 2 3 3 1 1 1 2 5 4 4 2 2 2 1 1 1 2 1 2 1 1 3 4 3 3 1 0 3 6 8 10 11 9 11 12 16 15 17
21 14 3 4 4 3 3 8 4 0 2 0 1 2 4 4 1 0 3 2 2 1 2 3 2 2 5 6 4 5 3 3 3 5 8 7 7 10 12 13 14 14 15 16
11 4 4 4 2 9 5 5 5 4 3 1 2 1 3 2 2 2 2 2 0 1 3 1 2 4 3 3 5 6 5 4 2 3 8 9 10 11 13 13 11 11 13 15
5 4 2 4 8 3 3 2 3 2 2 2 3 4 2 1 1 2 1 2 1 2 4 0 3 4 3 5 4 4 6 3 1 2 3 5 7 9 10 12 12 11 11 11
4 5 4 2 4 3 3 2 2 2 2 2 2 3 3 2 2 3 2 0 2 4 1 2 4 4 1 6 3 4 5 3 1 2 4 4 6 7 8 9 10 10 10 8
2 2 1 2 3 5 4 2 3 2 1 2 3 4 1 3 2 2 2 1 4 1 3 4 5 3 3 4 4 4 3 2 2 2 3 4 3 4 6 8 9 9 8 7
1 1 4 4 4 4 4 3 2 3 2 1 1 3 1 1 3 2 2 3 1 2 1 5 3 3 3 4 3 4 3 1 1 3 4 3 3 3 4 5 8 7 7 7
2 2 4 5 4 3 2 2 1 2 1 1 2 2 2 2 1 2 1 2 3 5 5 5 2 3 5 4 3 3 2 1 2 4 4 3 3 4 3 3 6 5 5 5
3 4 1 2 2 4 3 1 3 1 2 2 2 0 2 4 3 3 6 3 6 5 3 3 4 2 2 2 3 4 3 1 1 1 2 3 5 6 3 1 3 4 3 4
4 5 2 3 2 5 4 4 4 3 3 2 3 2 8 1 2 3 3 5 3 3 4 3 3 3 5 5 6 5 5 4 3 2 1 3 1 4 4 5 3 3 3 1
Wind_Direction
285 280 280 280 282 295 95 111 289 281 167 158 234 229 226 300 275 162 216 280 236 251 45 342 272 282 355 166 176 206 203 195 214 173 212 258 184 122 135 270 291 109 135 293
317 310 290 269 261 225 139 244 259 330 100 216 200 250 237 255 279 228 231 251 223 142 15 339 277 334 292 4 350 360 16 259 199 195 152 230 152 188 159 115 35 203 147 246
317 315 308 305 280 231 155 156 265 313 216 200 253 258 253 243 251 243 236 272 299 358 303 197 276 312 300 354 202 245 176 296 343 6 64 6 313 203 182 152 175 206 212 268
309 302 298 297 293 280 188 181 223 186 208 225 221 156 301 291 324 276 341 319 354 310 314 324 263 314 354 328 317 120 130 297 346 262 246 246 272 302 252 216 230 213 217 226
308 303 298 291 281 282 201 227 222 321 301 227 167 199 207 243 262 184 302 209 334 302 193 207 272 292 296 263 347 2 44 290 210 268 244 236 242 240 237 239 242 246 271 281
324 319 312 300 282 217 191 167 191 130 240 236 177 209 208 206 182 233 226 144 119 306 259 252 245 236 233 238 260 228 273 206 68 261 89 197 283 235 237 241 234 217 235 251
331 329 326 315 285 248 189 170 152 176 240 206 220 271 240 242 231 219 258 273 200 230 270 292 278 257 255 244 237 184 233 248 226 269 100 255 249 269 224 235 242 203 250 238
323 325 319 315 301 282 230 185 179 178 218 210 218 209 251 292 255 256 258 254 237 237 328 3 315 299 276 229 227 211 210 211 292 172 220 287 274 234 232 194 263 197 214 264
328 323 322 315 310 311 246 196 195 143 148 231 224 211 221 262 240 295 243 273 230 167 171 139 203 246 245 236 169 186 180 199 154 74 218 254 326 72 89 54 287 187 191 247
343 343 348 337 318 307 146 160 176 135 256 249 145 189 197 169 164 218 298 301 298 162 168 202 205 231 317 231 191 155 153 177 216 196 235 283 226 159 127 94 242 212 200 239
14 6 0 8 47 50 70 332 183 164 243 262 209 232 191 152 139 180 254 1 241 244 197 185 198 199 196 209 285 178 162 156 203 177 218 277 170 66 164 217 252 233 227 244
2 2 3 16 30 11 39 323 335 101 196 250 287 268 252 209 182 150 203 248 258 290 196 157 134 189 160 165 228 131 233 186 181 177 212 232 229 215 246 12 257 291 261 268
342 348 356 10 19 19 58 11 105 96 329 287 331 241 260 201 210 180 202 199 243 278 292 31 123 96 174 178 230 194 236 169 226 125 236 239 270 271 272 297 272 285 280 281
343 331 327 349 1 5 85 48 62 47 261 282 282 300 281 237 190 196 204 188 132 9 354 39 46 266 158 228 245 184 203 103 215 269 299 317 349 342 356 332 326 316 302 276
341 335 318 312 337 3 34 85 236 223 16 318 286 303 291 299 175 185 178 178 144 127 293 18 260 248 96 265 43 250 190 197 160 227 50 283 275 328 316 312 311 299 291 294
337 337 325 298 304 27 111 28 267 263 227 291 315 290 309 356 116 148 177 143 130 160 149 241 275 255 140 211 229 238 172 116 115 274 328 267 275 279 274 314 310 304 298 286
334 333 329 286 272 101 117 184 229 283 194 288 296 324 289 343 45 43 81 102 184 144 177 231 235 266 167 206 225 212 190 171 282 271 313 293 307 311 301 315 321 324 321 317
331 328 323 341 46 54 4 289 301 160 246 251 299 277 341 2 349 336 359 98 35 304 223 298 215 314 144 259 233 134 164 196 311 356 323 309 303 306 329 333 330 327 330 333
328 324 62 42 41 37 259 298 292 247 152 113 312 299 273 349 331 25 12 55 25 318 244 248 124 208 226 227 172 174 151 119 345 328 316 318 324 336 329 330 331 331 330 336
337 39 47 350 274 310 8 10 22 6 357 350 269 110 277 52 12 327 38 20 116 338 254 87 206 255 240 170 160 145 142 108 21 339 334 343 330 328 330 332 329 325 324 329
26 24 351 255 316 51 33 16 87 309 338 235 234 198 260 260 66 250 134 207 299 24 275 182 268 273 244 155 146 151 131 115 348 310 327 336 333 332 331 333 332 326 319 324
247 285 268 315 22 26 64 293 309 218 236 276 226 255 223 289 93 85 322 123 36 252 355 57 277 262 132 166 171 168 145 159 301 335 331 332 329 331 329 322 322 321 316 322
326 207 266 358 303 28 125 261 299 346 249 278 340 316 303 343 57 53 75 69 235 5 29 240 237 281 174 161 150 154 164 159 298 329 331 337 318 332 329 325 334 323 331 344
288 146 310 147 298 250 200 199 209 247 195 277 159 279 125 309 40 158 100 246 312 322 325 250 264 267 183 163 163 150 176 207 16 344 334 311 317 302 310 324 343 330 348 355
232 122 227 220 230 252 238 234 310 249 194 110 1 340 80 308 32 203 205 320 254 203 235 238 288 269 157 171 183 182 186 292 338 346 329 358 333 317 294 329 349 346 355 15
226 228 250 221 64 289 332 242 250 212 121 70 84 170 12 258 200 196 216 214 219 242 241 274 303 165 159 187 203 221 227 227 161 72 10 342 355 327 311 315 359 343 353 23
223 247 198 168 175 193 210 177 218 153 101 211 115 159 217 163 220 251 199 208 222 273 295 288 248 227 212 216 217 220 229 235 191 144 321 331 30 7 8 25 14 357 349 344